Location: Breitenfeld
(46.8500°N, 15.6333°E)
Time: 22:30:30
(UTC+00:00)

ATLAS 5 CENTAUR R/B - Pass Details

Date: 09 April 2020
Orbit: 543 x 1116 km, 63.4° (Epoch: 01 May)

Event Time Altitude Azimuth Distance (km) Brightness Sun altitude
Rises 18:15:20 0° 202° (SSW) 2,710 4.9 -6.9°
Reaches altitude 10° 18:17:30 10° 196° (SSW) 1,848 4.0 -7.3°
Maximum altitude 18:21:27 48° 122° (ESE) 784 1.7 -7.9°
Drops below altitude 10° 18:25:53 10° 48° (NE) 2,067 4.0 -8.6°
Sets 18:28:24 0° 43° (NE) 3,071 4.9 -9.0°
